When you browse on this site, cookies collect data to enhance your experience and personalize the content and advertising you see.
Visit our Privacy Policy to learn more. By continuing to use the site, you agree to this use of cookies and data.
  • Em Portugal
  • Lista de países
  • Para 7 dias
  • Temperatura da água
  • Mapas de satélite
  • Mapa do tempo
  • Widgets de tempo
  • user-avatar
    Iniciar Sessão

    Previsão horária em Novaya Popovka

    Hoje, 20 Fevereiro, Quarta-feira

    Tempo Temperatura Precipitação Vento Pressão Humidade
    00:00 -8°C° 0 mm 5 m/s 747 mmHg 85%
    01:00 -8°C° 0 mm 5 m/s 747 mmHg 85%
    02:00 -10°C° 0 mm 6 m/s 747 mmHg 85%
    03:00 -10°C° 0 mm 6 m/s 746 mmHg 85%
    04:00 -10°C° 0 mm 6 m/s 746 mmHg 85%
    05:00 -10°C° 0 mm 6 m/s 745 mmHg 86%
    06:00 -10°C° 0 mm 6 m/s 744 mmHg 86%
    07:00 -10°C° 0 mm 6 m/s 744 mmHg 86%
    08:00 -9°C° 0 mm 7 m/s 744 mmHg 85%
    09:00 -9°C° 0 mm 7 m/s 743 mmHg 85%
    10:00 -8°C° 0 mm 7 m/s 743 mmHg 86%
    11:00 -7°C° 0 mm 7 m/s 743 mmHg 87%
    12:00 -6°C° 0 mm 7 m/s 742 mmHg 87%
    13:00 -4°C° 0.1 mm 7 m/s 742 mmHg 88%
    14:00 -4°C° 0.1 mm 7 m/s 742 mmHg 89%
    15:00 -4°C° 0.1 mm 6 m/s 741 mmHg 89%
    16:00 -3°C° 0 mm 6 m/s 741 mmHg 90%
    17:00 -3°C° 0 mm 6 m/s 741 mmHg 90%
    18:00 -3°C° 0 mm 6 m/s 741 mmHg 90%
    19:00 -3°C° 0.2 mm 6 m/s 740 mmHg 91%
    20:00 -3°C° 0.2 mm 6 m/s 740 mmHg 92%
    21:00 -3°C° 0.2 mm 6 m/s 740 mmHg 92%
    22:00 -1°C° 0.1 mm 5 m/s 740 mmHg 93%
    23:00 -1°C° 0.1 mm 5 m/s 739 mmHg 93%

    Amanhã, 21 Fevereiro, Quinta-feira

    Tempo Temperatura Precipitação Vento Pressão Humidade
    00:00 -1°C° 0.1 mm 5 m/s 739 mmHg 93%
    01:00 -1°C° 0 mm 5 m/s 739 mmHg 93%
    02:00 -2°C° 0 mm 5 m/s 738 mmHg 92%
    03:00 -2°C° 0 mm 5 m/s 738 mmHg 92%
    04:00 -2°C° 0 mm 5 m/s 737 mmHg 92%
    05:00 -3°C° 0 mm 6 m/s 737 mmHg 92%
    06:00 -4°C° 0 mm 6 m/s 736 mmHg 93%
    07:00 -4°C° 0.3 mm 6 m/s 736 mmHg 93%
    08:00 -3°C° 0.3 mm 7 m/s 736 mmHg 93%
    09:00 -3°C° 0.3 mm 7 m/s 735 mmHg 93%
    10:00 -4°C° 0.3 mm 7 m/s 735 mmHg 91%
    11:00 -4°C° 0.3 mm 6 m/s 735 mmHg 89%
    12:00 -5°C° 0.3 mm 6 m/s 735 mmHg 87%
    13:00 -5°C° 0 mm 6 m/s 735 mmHg 87%
    14:00 -5°C° 0 mm 5 m/s 735 mmHg 86%
    15:00 -5°C° 0 mm 5 m/s 735 mmHg 86%
    16:00 -6°C° 0.1 mm 5 m/s 735 mmHg 87%
    17:00 -6°C° 0.1 mm 5 m/s 735 mmHg 88%
    18:00 -7°C° 0.1 mm 4 m/s 736 mmHg 89%
    19:00 -7°C° 0.1 mm 5 m/s 736 mmHg 90%
    20:00 -7°C° 0.1 mm 5 m/s 736 mmHg 91%
    21:00 -8°C° 0.1 mm 6 m/s 736 mmHg 92%
    22:00 -6°C° 0.3 mm 6 m/s 736 mmHg 92%
    23:00 -7°C° 0.3 mm 7 m/s 736 mmHg 92%

    Depois de amanhã, 22 Fevereiro, Sexta-feira

    Tempo Temperatura Precipitação Vento Pressão Humidade
    00:00 -7°C° 0.3 mm 8 m/s 736 mmHg 92%
    01:00 -10°C° 0.2 mm 8 m/s 736 mmHg 91%
    02:00 -11°C° 0.2 mm 8 m/s 737 mmHg 90%
    03:00 -12°C° 0.2 mm 7 m/s 737 mmHg 89%
    04:00 -12°C° 0.2 mm 7 m/s 737 mmHg 89%
    05:00 -13°C° 0.2 mm 7 m/s 738 mmHg 89%
    06:00 -14°C° 0.2 mm 7 m/s 738 mmHg 89%
    07:00 -14°C° 0.1 mm 7 m/s 739 mmHg 88%
    08:00 -14°C° 0.1 mm 7 m/s 740 mmHg 88%
    09:00 -14°C° 0.1 mm 6 m/s 740 mmHg 87%
    10:00 -14°C° 0.1 mm 6 m/s 741 mmHg 86%
    11:00 -14°C° 0.1 mm 6 m/s 741 mmHg 85%
    12:00 -14°C° 0.1 mm 6 m/s 742 mmHg 83%
    13:00 -14°C° 0.1 mm 6 m/s 742 mmHg 83%
    14:00 -14°C° 0.1 mm 6 m/s 743 mmHg 83%
    15:00 -14°C° 0.1 mm 6 m/s 743 mmHg 83%
    16:00 -14°C° 0.1 mm 5 m/s 744 mmHg 86%
    17:00 -14°C° 0.1 mm 4 m/s 744 mmHg 88%
    18:00 -14°C° 0.1 mm 3 m/s 745 mmHg 91%
    19:00 -14°C° 0 mm 3 m/s 745 mmHg 91%
    20:00 -15°C° 0 mm 3 m/s 746 mmHg 92%
    21:00 -15°C° 0 mm 3 m/s 746 mmHg 93%
    22:00 -16°C° 0 mm 3 m/s 747 mmHg 93%
    23:00 -17°C° 0 mm 3 m/s 747 mmHg 94%

    23 Fevereiro, Sábado

    Tempo Temperatura Precipitação Vento Pressão Humidade
    00:00 -18°C° 0 mm 3 m/s 748 mmHg 94%
    01:00 -17°C° 0 mm 3 m/s 748 mmHg 95%
    02:00 -17°C° 0 mm 3 m/s 749 mmHg 95%
    03:00 -17°C° 0 mm 3 m/s 749 mmHg 95%
    04:00 -17°C° 0 mm 3 m/s 750 mmHg 95%
    05:00 -16°C° 0 mm 3 m/s 750 mmHg 95%
    06:00 -16°C° 0 mm 3 m/s 750 mmHg 95%
    07:00 -15°C° 0 mm 3 m/s 751 mmHg 94%
    08:00 -16°C° 0 mm 4 m/s 751 mmHg 94%
    09:00 -16°C° 0 mm 4 m/s 752 mmHg 93%
    10:00 -15°C° 0 mm 4 m/s 752 mmHg 92%
    11:00 -15°C° 0 mm 4 m/s 753 mmHg 91%
    12:00 -14°C° 0 mm 4 m/s 753 mmHg 89%
    13:00 -13°C° 0 mm 3 m/s 753 mmHg 89%
    14:00 -13°C° 0 mm 3 m/s 753 mmHg 88%
    15:00 -13°C° 0 mm 3 m/s 754 mmHg 87%
    16:00 -14°C° 0 mm 3 m/s 754 mmHg 89%
    17:00 -15°C° 0 mm 3 m/s 754 mmHg 90%
    18:00 -15°C° 0 mm 2 m/s 754 mmHg 92%
    19:00 -15°C° 0 mm 2 m/s 754 mmHg 92%
    20:00 -16°C° 0 mm 2 m/s 755 mmHg 92%
    21:00 -17°C° 0 mm 2 m/s 755 mmHg 93%
    22:00 -18°C° 0 mm 2 m/s 755 mmHg 93%
    23:00 -18°C° 0 mm 2 m/s 755 mmHg 93%

    24 Fevereiro, Domingo

    Tempo Temperatura Precipitação Vento Pressão Humidade
    00:00 -18°C° 0 mm 2 m/s 755 mmHg 93%
    01:00 -18°C° 0 mm 2 m/s 755 mmHg 94%
    02:00 -19°C° 0 mm 2 m/s 755 mmHg 95%
    03:00 -19°C° 0 mm 2 m/s 756 mmHg 95%
    04:00 -19°C° 0 mm 2 m/s 756 mmHg 96%
    05:00 -19°C° 0 mm 2 m/s 756 mmHg 96%
    06:00 -19°C° 0 mm 2 m/s 756 mmHg 97%
    07:00 -19°C° 0 mm 2 m/s 756 mmHg 96%
    08:00 -18°C° 0 mm 2 m/s 757 mmHg 96%
    09:00 -19°C° 0 mm 3 m/s 757 mmHg 96%
    10:00 -17°C° 0 mm 3 m/s 757 mmHg 95%
    11:00 -16°C° 0 mm 3 m/s 757 mmHg 94%
    12:00 -15°C° 0 mm 3 m/s 757 mmHg 93%
    13:00 -14°C° 0 mm 3 m/s 757 mmHg 92%
    14:00 -14°C° 0 mm 4 m/s 757 mmHg 91%
    15:00 -14°C° 0 mm 4 m/s 757 mmHg 91%
    16:00 -12°C° 0 mm 4 m/s 757 mmHg 91%
    17:00 -12°C° 0 mm 4 m/s 757 mmHg 91%
    18:00 -12°C° 0 mm 4 m/s 757 mmHg 91%
    19:00 -12°C° 0.1 mm 4 m/s 757 mmHg 92%
    20:00 -13°C° 0.1 mm 5 m/s 757 mmHg 92%
    21:00 -13°C° 0.1 mm 5 m/s 757 mmHg 92%
    22:00 -13°C° 0.1 mm 5 m/s 757 mmHg 93%
    23:00 -14°C° 0.1 mm 5 m/s 757 mmHg 93%

    25 Fevereiro, Segunda-feira

    Tempo Temperatura Precipitação Vento Pressão Humidade
    00:00 -14°C° 0.1 mm 5 m/s 757 mmHg 94%
    01:00 -14°C° 0 mm 4 m/s 757 mmHg 94%
    02:00 -14°C° 0 mm 4 m/s 757 mmHg 95%
    03:00 -14°C° 0 mm 4 m/s 757 mmHg 95%
    04:00 -14°C° 0 mm 4 m/s 756 mmHg 96%
    05:00 -13°C° 0 mm 3 m/s 756 mmHg 96%
    06:00 -13°C° 0 mm 3 m/s 756 mmHg 96%
    07:00 -12°C° 0 mm 3 m/s 756 mmHg 96%
    08:00 -10°C° 0 mm 2 m/s 756 mmHg 96%
    09:00 -9°C° 0 mm 2 m/s 756 mmHg 96%
    10:00 -8°C° 0 mm 2 m/s 756 mmHg 95%
    11:00 -6°C° 0 mm 1 m/s 756 mmHg 95%
    12:00 -3°C° 0 mm 1 m/s 756 mmHg 94%
    13:00 -3°C° 0 mm 1 m/s 755 mmHg 94%
    14:00 -2°C° 0 mm 1 m/s 755 mmHg 93%
    15:00 -3°C° 0 mm 0 m/s 754 mmHg 93%
    16:00 -3°C° 0 mm 0 m/s 754 mmHg 94%
    17:00 -3°C° 0 mm 1 m/s 753 mmHg 95%
    18:00 -3°C° 0 mm 1 m/s 753 mmHg 96%
    19:00 -3°C° 0 mm 1 m/s 753 mmHg 96%
    20:00 -5°C° 0 mm 2 m/s 753 mmHg 96%
    21:00 -5°C° 0 mm 2 m/s 753 mmHg 96%
    22:00 -6°C° 0 mm 2 m/s 752 mmHg 96%
    23:00 -4°C° 0 mm 1 m/s 752 mmHg 96%
    Mostrar mais